Location: Newark
(48.6461°N, 4.3644°W)
Time: 03:30:04
(UTC+00:00)

Transit 4A - Pass Details

Date: 26 January 2020
Orbit: 872 x 973 km, 66.8° (Epoch: 17 February)

Event Time Altitude Azimuth Distance (km) Brightness Sun altitude
Rises 15:10:47 0° 323° (NW) 3,474 10.7 13.7°
Reaches altitude 10° 15:13:16 10° 323° (NW) 2,530 10.1 13.4°
Maximum altitude 15:19:06 79° 238° (WSW) 895 8.3 12.8°
Drops below altitude 10° 15:24:57 10° 152° (SSE) 2,535 10.5 12.2°
Sets 15:27:26 0° 151° (SSE) 3,481 11.2 11.9°
